Погода в Дубиновке

Россия / Курская область     51°38′57″N   37°29′44″E
темп.,
°C
ветер,
м/с
пор.,
м/с
влажн.,
%
обл.,
%
осадки,
мм/ч
давл.,
гПа
погр.,
м
30 июня, чт
чт3000:00+14всв3675100 0.0 1019108
03:00+13всв337690 0.0 101949
06:00+14всв34820 0.0 1018109
09:00+19всв34621 0.0 1018542
12:00+22ссв32515 0.0 10181552
15:00+23с34460 0.0 10171867
18:00+22с34565 0.0 10161809
21:00+17с33756 0.0 101628
1 июля, пт
пт100:00+16ссз33769 0.0 101754
03:00+14сз3582100 0.0 101790
06:00+14ссз410810 0.0 1016265
09:00+19с710580 0.0 1017941
12:00+20ссв810470 0.0 10171785
15:00+20ссв79474 0.0 10181819
18:00+18ссв68550 0.0 10191626
21:00+13с34712 0.0 102059
2 июля, сб
сб200:00+11ссв38790 0.0 1021138
03:00+9с33820 0.0 102133
06:00+11ссз49790 0.0 1022210
09:00+17с69550 0.0 1022714
12:00+20с57455 0.0 10211514
15:00+22с57435 0.0 10201773
18:00+21ссз57550 0.0 10191146
21:00+15ссз33755 0.0 102033
3 июля, вс
вс300:00+14сз33780 0.0 101925
03:00+13зсз46805 0.0 101990
06:00+15зсз49792 0.0 1018183
09:00+21сз596197 0.0 1017455
12:00+25сз695263 0.0 10161194
15:00+27сз795399 0.1 10152202
18:00+24с597324 1.3 1015431
21:00+19сз348531 1.9 101645
4 июля, пн
пн400:00+17ссз359456 0.3 101684
03:00+16ссз3392100 0.3 101631
06:00+17с23880 0.0 101786
09:00+23ссв34660 0.0 1017476
12:00+26ссв34520 0.0 10171587
15:00+27св444555 0.0 10162226
18:00+25всв465745 0.0 1017300
21:00+19в47740 0.0 1018120